Location: Isles
(48.9125°N, 2.8272°E)
Time: 19:43:08
(UTC+00:00)

RESURS DK-1 - Pass Details

Date: 03 February 2023
Orbit: 549 x 557 km, 69.9° (Epoch: 21 March)

Event Time Altitude Azimuth Distance (km) Brightness Sun altitude
Rises 18:12:47 0° 331° (NNW) 2,741 6.1 -14.0°
Reaches altitude 10° 18:15:00 10° 334° (NNW) 1,844 5.2 -14.3°
Maximum altitude 18:19:06 68° 59° (ENE) 601 2.2 -15.0°
Drops below altitude 10° 18:23:11 10° 142° (SE) 1,836 4.7 -15.7°
Enters shadow 18:23:21 - 142° (SE) 1,898 4.8 -15.7°
